Flag for South Korea Weather past 2 weeks in Busan, South Korea

Now
77 °F

Broken clouds.


Feels Like: 79 °F
Forecast: 73 / 80 °F
Wind: 8 mph from Northeast

Location: Pusan / Kimhae International Airport

Current Time: Aug 28, 2014 at 2:17:28 PM

Latest Report: Aug 28, 2014 at 1:00 PM


Visibility: N/A

Pressure: 30.01 "Hg

Humidity: 65%

Dew point: 64 °F

Location of BusanLocation

Historic Weather in Busan — Graph

°F

Busan temperature yesterday

Maximum temperature yesterday: 77 °F (at 11:00 AM)
Minimum temperature yesterday: 70 °F (at 2:00 AM)
Average temperature yesterday: 73 °F

Past Weeks' High & Low Weather Summary

 TemperatureHumidityPressure
High88 °F (Aug 23, 1:00 PM)94% (Aug 14, 5:00 AM)30.07 "Hg (Aug 14, 5:00 AM)
Low68 °F (Aug 22, 6:00 AM)45% (Aug 17, 3:00 PM)29.65 "Hg (Aug 25, 2:00 PM)
Average76 °F82%29.83 "Hg
* Reported Aug 13 1:00 PM — Aug 28 1:00 PM, Busan, Weather by CustomWeather, © 2014

Note: Actual official high and low records may vary slightly from our data, if they occured in-between our weather recording intervals... More about our weather records

Advertising

Busan weather history for previous 24 hours

 ConditionsComfort  
Time TempWeatherWind HumidityBarometerVisibility
1:00 PM
Aug 28
77 °FBroken clouds.8 mph65%30.01 "HgN/A
12:00 PM75 °FBroken clouds.8 mph69%30.04 "HgN/A
11:00 AM75 °FBroken clouds.8 mph69%30.04 "HgN/A
10:00 AM73 °FPartly sunny.3 mph74%30.07 "HgN/A
9:00 AM72 °FPartly sunny.3 mph78%30.04 "HgN/A
8:00 AM70 °FPartly sunny.5 mph83%30.04 "HgN/A
7:00 AM68 °FLight rain. Partly sunny.5 mph88%30.04 "HgN/A
6:00 AM68 °FPartly sunny.3 mph88%30.04 "HgN/A
5:00 AM68 °FPassing clouds.3 mph88%30.04 "HgN/A
4:00 AM68 °FPartly cloudy.3 mph88%30.03 "HgN/A
3:00 AM70 °FPassing clouds.1 mph78%30.04 "HgN/A
2:00 AM70 °FPartly cloudy.1 mph78%30.04 "HgN/A
1:00 AM70 °FPassing clouds.7 mph78%30.04 "HgN/A
11:00 PM
Aug 27
70 °FPassing clouds.8 mph78%30.01 "HgN/A
10:00 PM72 °FPartly cloudy.8 mph73%30.04 "HgN/A
9:00 PM72 °FPartly cloudy.7 mph73%30.04 "HgN/A
8:00 PM72 °FPassing clouds.8 mph73%30.01 "HgN/A
7:00 PM73 °FPassing clouds.8 mph69%30.01 "HgN/A
6:00 PM73 °FPartly sunny.12 mph69%29.98 "HgN/A
5:00 PM75 °FPartly sunny.9 mph69%30.01 "HgN/A
4:00 PM75 °FPartly sunny.9 mph69%29.98 "HgN/A
3:00 PM75 °FPartly sunny.13 mph69%29.98 "HgN/A
2:00 PM75 °FPartly sunny.13 mph74%29.98 "HgN/A
Weather by CustomWeather, © 2014

See weather overviewHow to use our weather pages